| time (UTC) | temp F | wind direction | speed MPH | gust MPH | rain 1hr in | rain 24hr in | rain mn in | humidity % | barometer mb |
| 20260906210046 | 88 | 149 | 11.0 | 21.0 | 0.00 | 0.00 | 0.00 | 52 | 941.8 |
| 20260906205100 | 88 | 152 | 9.0 | 14.0 | 0.00 | 0.00 | 0.00 | 51 | 942.0 |
| 20260906204031 | 87 | 158 | 9.0 | 16.0 | 0.00 | 0.00 | 0.00 | 50 | 942.1 |
| 20260906203025 | 86 | 151 | 10.0 | 18.0 | 0.00 | 0.00 | 0.00 | 53 | 942.4 |
| 20260906202018 | 85 | 170 | 10.0 | 22.0 | 0.00 | 0.00 | 0.00 | 55 | 942.6 |
| 20260906201041 | 84 | 151 | 13.0 | 22.0 | 0.00 | 0.00 | 0.00 | 60 | 942.9 |
| 20260906200034 | 84 | 158 | 14.0 | 21.0 | 0.00 | 0.00 | 0.00 | 61 | 942.9 |
| 20260906195026 | 83 | 155 | 12.0 | 18.0 | 0.00 | 0.00 | 0.00 | 64 | 942.8 |
| 20260906194019 | 83 | 159 | 9.0 | 15.0 | 0.00 | 0.00 | 0.00 | 64 | 943.1 |
| 20260906193042 | 82 | 144 | 15.0 | 21.0 | 0.00 | 0.00 | 0.00 | 66 | 943.3 |
| 20260906192036 | 82 | 147 | 12.0 | 16.0 | 0.00 | 0.00 | 0.00 | 67 | 943.5 |
| 20260906191027 | 80 | 148 | 14.0 | 22.0 | 0.00 | 0.00 | 0.00 | 70 | 943.4 |
| 20260906190021 | 82 | 134 | 14.0 | 25.0 | 0.00 | 0.00 | 0.00 | 67 | 943.6 |
| 20260906185044 | 85 | 116 | 4.0 | 10.0 | 0.00 | 0.00 | 0.00 | 63 | 943.5 |
| 20260906184037 | 85 | 139 | 4.0 | 12.0 | 0.00 | 0.00 | 0.00 | 64 | 943.3 |
| 20260906183031 | 85 | 122 | 4.0 | 10.0 | 0.00 | 0.00 | 0.00 | 64 | 943.2 |
| 20260906182022 | 84 | 86 | 6.0 | 14.0 | 0.00 | 0.00 | 0.00 | 65 | 943.6 |
| 20260906181047 | 84 | 104 | 5.0 | 12.0 | 0.00 | 0.00 | 0.00 | 64 | 943.9 |
| 20260906180038 | 84 | 77 | 6.0 | 12.0 | 0.00 | 0.00 | 0.00 | 64 | 943.9 |
| 20260906175032 | 83 | 82 | 8.0 | 16.0 | 0.00 | 0.00 | 0.00 | 65 | 944.1 |
| 20260906174023 | 82 | 70 | 6.0 | 12.0 | 0.00 | 0.00 | 0.00 | 65 | 944.1 |
| 20260906173048 | 82 | 60 | 5.0 | 10.0 | 0.00 | 0.00 | 0.00 | 66 | 944.1 |
| 20260906172039 | 82 | 67 | 5.0 | 12.0 | 0.00 | 0.00 | 0.00 | 67 | 944.4 |
| 20260906171033 | 81 | 42 | 9.0 | 15.0 | 0.00 | 0.00 | 0.00 | 68 | 944.6 |
| 20260906170046 | 81 | 42 | 7.0 | 11.0 | 0.00 | 0.00 | 0.00 | 69 | 944.6 |
| 20260906165038 | 80 | 62 | 6.0 | 12.0 | 0.00 | 0.00 | 0.00 | 72 | 944.4 |
| 20260906164103 | 80 | 49 | 5.0 | 10.0 | 0.00 | 0.00 | 0.00 | 74 | 944.6 |
| 20260906163034 | 79 | 358 | 5.0 | 8.0 | 0.00 | 0.00 | 0.00 | 77 | 944.5 |
| 20260906162027 | 76 | 7 | 6.0 | 10.0 | 0.00 | 0.00 | 0.00 | 80 | 944.6 |
| 20260906161039 | 75 | 357 | 9.0 | 16.0 | 0.00 | 0.00 | 0.00 | 80 | 944.6 |
| 20260906160104 | 78 | 293 | 6.0 | 12.0 | 0.00 | 0.00 | 0.00 | 78 | 944.6 |
| 20260906155035 | 78 | 288 | 7.0 | 11.0 | 0.00 | 0.00 | 0.00 | 80 | 943.9 |
| 20260906154049 | 76 | 274 | 4.0 | 5.0 | 0.00 | 0.00 | 0.00 | 81 | 943.6 |
| 20260906153020 | 76 | 214 | 3.0 | 5.0 | 0.00 | 0.00 | 0.00 | 81 | 943.6 |
| 20260906152045 | 77 | 160 | 1.0 | 3.0 | 0.00 | 0.00 | 0.00 | 80 | 943.7 |
| 20260906151039 | 77 | 148 | 1.0 | 3.0 | 0.00 | 0.00 | 0.00 | 78 | 943.8 |
| 20260906150030 | 75 | 146 | 1.0 | 3.0 | 0.00 | 0.00 | 0.00 | 82 | 943.7 |
| 20260906145023 | 75 | 146 | 2.0 | 3.0 | 0.00 | 0.00 | 0.00 | 81 | 943.9 |
| 20260906144047 | 75 | 145 | 0.0 | 1.0 | 0.00 | 0.00 | 0.00 | 82 | 944.0 |
| 20260906143040 | 73 | 146 | 1.0 | 3.0 | 0.00 | 0.00 | 0.00 | 84 | 944.1 |
| 20260906142051 | 72 | 146 | 1.0 | 4.0 | 0.00 | 0.00 | 0.00 | 86 | 943.9 |
| 20260906141025 | 71 | 148 | 2.0 | 3.0 | 0.00 | 0.00 | 0.00 | 87 | 943.9 |
| 20260906140016 | 70 | 146 | 2.0 | 4.0 | 0.00 | 0.00 | 0.00 | 87 | 943.7 |
| 20260906135041 | 69 | 151 | 1.0 | 3.0 | 0.00 | 0.00 | 0.00 | 89 | 943.7 |
| 20260906134053 | 68 | 171 | 0.0 | 1.0 | 0.00 | 0.00 | 0.00 | 90 | 944.0 |
| 20260906133026 | 68 | 0.0 | 0.0 | 0.00 | 0.00 | 0.00 | 91 | 944.0 | |
| 20260906132019 | 68 | 0.0 | 0.0 | 0.00 | 0.00 | 0.00 | 91 | 944.0 | |
| 20260906131042 | 67 | 0.0 | 0.0 | 0.00 | 0.00 | 0.00 | 92 | 943.8 | |
| 20260906130036 | 67 | 0.0 | 0.0 | 0.00 | 0.00 | 0.00 | 92 | 943.8 | |
| 20260906125027 | 67 | 0.0 | 0.0 | 0.00 | 0.00 | 0.00 | 92 | 943.8 | |
| 20260906124020 | 67 | 0.0 | 0.0 | 0.00 | 0.00 | 0.00 | 92 | 943.9 | |
| 20260906123044 | 67 | 0.0 | 0.0 | 0.00 | 0.00 | 0.00 | 92 | 943.7 | |
| 20260906122037 | 67 | 0.0 | 0.0 | 0.00 | 0.00 | 0.00 | 92 | 943.6 | |
| 20260906121028 | 67 | 135 | 0.0 | 1.0 | 0.00 | 0.00 | 0.00 | 91 | 943.4 |
| 20260906120022 | 67 | 124 | 2.0 | 5.0 | 0.00 | 0.00 | 0.00 | 91 | 943.4 |
| 20260906115045 | 67 | 113 | 1.0 | 7.0 | 0.00 | 0.00 | 0.00 | 91 | 943.6 |
| 20260906114039 | 66 | 127 | 0.0 | 4.0 | 0.00 | 0.00 | 0.00 | 90 | 943.8 |
| 20260906113032 | 66 | 119 | 0.0 | 5.0 | 0.00 | 0.00 | 0.00 | 90 | 944.1 |
| 20260906112023 | 67 | 146 | 1.0 | 4.0 | 0.00 | 0.00 | 0.00 | 89 | 944.1 |
| 20260906111108 | 66 | 146 | 0.0 | 3.0 | 0.00 | 0.00 | 0.00 | 89 | 943.9 |
| 20260906110040 | 67 | 124 | 1.0 | 3.0 | 0.00 | 0.00 | 0.00 | 88 | 943.6 |
| 20260906105033 | 67 | 126 | 1.0 | 3.0 | 0.00 | 0.00 | 0.00 | 88 | 943.7 |
| 20260906104024 | 67 | 129 | 1.0 | 4.0 | 0.00 | 0.00 | 0.00 | 88 | 943.8 |
| 20260906103018 | 67 | 130 | 1.0 | 3.0 | 0.00 | 0.00 | 0.00 | 88 | 943.7 |
| 20260906102041 | 67 | 117 | 2.0 | 5.0 | 0.00 | 0.00 | 0.00 | 88 | 943.8 |
| 20260906101034 | 67 | 126 | 2.0 | 7.0 | 0.00 | 0.00 | 0.00 | 87 | 943.6 |
| 20260906100026 | 67 | 134 | 1.0 | 3.0 | 0.00 | 0.00 | 0.00 | 87 | 943.5 |
| 20260906095019 | 66 | 133 | 1.0 | 4.0 | 0.00 | 0.00 | 0.00 | 86 | 943.6 |
| 20260906094104 | 67 | 126 | 1.0 | 3.0 | 0.00 | 0.00 | 0.00 | 86 | 943.6 |
| 20260906093035 | 67 | 121 | 2.0 | 5.0 | 0.00 | 0.00 | 0.00 | 86 | 943.7 |
| 20260906092029 | 67 | 117 | 2.0 | 4.0 | 0.00 | 0.00 | 0.00 | 86 | 943.5 |
| 20260906091020 | 67 | 132 | 1.0 | 3.0 | 0.00 | 0.00 | 0.00 | 86 | 943.6 |
| 20260906090045 | 67 | 119 | 1.0 | 4.0 | 0.00 | 0.00 | 0.00 | 86 | 943.7 |
| 20260906085036 | 67 | 138 | 0.0 | 3.0 | 0.00 | 0.00 | 0.00 | 85 | 943.7 |
| 20260906084030 | 67 | 145 | 1.0 | 4.0 | 0.00 | 0.00 | 0.00 | 85 | 943.8 |
| 20260906083021 | 67 | 144 | 2.0 | 4.0 | 0.00 | 0.00 | 0.00 | 85 | 943.6 |
| 20260906082047 | 67 | 139 | 1.0 | 3.0 | 0.00 | 0.00 | 0.00 | 84 | 943.5 |
| 20260906081040 | 68 | 130 | 0.0 | 3.0 | 0.00 | 0.00 | 0.00 | 84 | 943.5 |
| 20260906080031 | 68 | 120 | 1.0 | 4.0 | 0.00 | 0.00 | 0.00 | 84 | 943.3 |
| 20260906075024 | 68 | 125 | 1.0 | 3.0 | 0.00 | 0.00 | 0.00 | 83 | 943.4 |
| 20260906074056 | 68 | 118 | 1.0 | 5.0 | 0.00 | 0.00 | 0.00 | 83 | 943.3 |
| 20260906073041 | 68 | 129 | 1.0 | 3.0 | 0.00 | 0.00 | 0.00 | 83 | 943.4 |
| 20260906072033 | 68 | 0.0 | 0.0 | 0.00 | 0.00 | 0.00 | 82 | 943.5 | |
| 20260906071046 | 69 | 0.0 | 0.0 | 0.00 | 0.00 | 0.00 | 82 | 943.4 | |
| 20260906070017 | 69 | 111 | 1.0 | 5.0 | 0.00 | 0.00 | 0.00 | 82 | 943.5 |
| 20260906065043 | 69 | 129 | 2.0 | 4.0 | 0.00 | 0.00 | 0.00 | 81 | 943.6 |
| 20260906064034 | 69 | 133 | 1.0 | 4.0 | 0.00 | 0.00 | 0.00 | 81 | 943.6 |
| 20260906063047 | 69 | 120 | 1.0 | 5.0 | 0.00 | 0.00 | 0.00 | 80 | 943.4 |
| 20260906062020 | 70 | 129 | 1.0 | 3.0 | 0.00 | 0.00 | 0.00 | 80 | 943.6 |
| 20260906061044 | 70 | 133 | 0.0 | 3.0 | 0.00 | 0.00 | 0.00 | 79 | 943.6 |
| 20260906060057 | 70 | 128 | 1.0 | 3.0 | 0.00 | 0.00 | 0.00 | 78 | 943.5 |
| 20260906055029 | 71 | 106 | 2.0 | 4.0 | 0.00 | 0.00 | 0.00 | 77 | 943.6 |
| 20260906054142 | 72 | 124 | 0.0 | 3.0 | 0.00 | 0.00 | 0.00 | 77 | 943.5 |
| 20260906053045 | 73 | 136 | 0.0 | 1.0 | 0.00 | 0.00 | 0.00 | 76 | 943.3 |
| 20260906052038 | 73 | 119 | 2.0 | 4.0 | 0.00 | 0.00 | 0.00 | 75 | 943.5 |
| 20260906051029 | 73 | 112 | 2.0 | 5.0 | 0.00 | 0.00 | 0.00 | 75 | 943.4 |
| 20260906050023 | 73 | 112 | 0.0 | 3.0 | 0.00 | 0.00 | 0.00 | 74 | 943.2 |
| 20260906045048 | 73 | 138 | 1.0 | 1.0 | 0.00 | 0.00 | 0.00 | 76 | 943.2 |
| 20260906044039 | 73 | 140 | 0.0 | 1.0 | 0.00 | 0.00 | 0.00 | 76 | 943.2 |
| 20260906043053 | 73 | 142 | 1.0 | 4.0 | 0.00 | 0.00 | 0.00 | 75 | 943.0 |
| 20260906042024 | 74 | 149 | 2.0 | 4.0 | 0.00 | 0.00 | 0.00 | 73 | 943.1 |
| 20260906041017 | 74 | 132 | 0.0 | 3.0 | 0.00 | 0.00 | 0.00 | 74 | 943.0 |
| 20260906040041 | 74 | 131 | 1.0 | 4.0 | 0.00 | 0.00 | 0.00 | 73 | 943.0 |
| 20260906035034 | 74 | 144 | 3.0 | 7.0 | 0.00 | 0.00 | 0.00 | 73 | 943.0 |
| 20260906034027 | 74 | 157 | 2.0 | 5.0 | 0.00 | 0.00 | 0.00 | 71 | 943.0 |
| 20260906033038 | 74 | 153 | 3.0 | 7.0 | 0.00 | 0.00 | 0.00 | 71 | 942.6 |
| 20260906032044 | 75 | 152 | 5.0 | 8.0 | 0.00 | 0.00 | 0.00 | 69 | 942.6 |
| 20260906031035 | 76 | 153 | 4.0 | 7.0 | 0.00 | 0.00 | 0.00 | 67 | 942.6 |
| 20260906030028 | 76 | 143 | 2.0 | 5.0 | 0.00 | 0.00 | 0.00 | 68 | 942.4 |
| 20260906025020 | 77 | 149 | 4.0 | 5.0 | 0.00 | 0.00 | 0.00 | 66 | 942.4 |
| 20260906024045 | 77 | 155 | 4.0 | 7.0 | 0.00 | 0.00 | 0.00 | 65 | 942.5 |
| 20260906023036 | 78 | 146 | 6.0 | 10.0 | 0.00 | 0.00 | 0.00 | 65 | 942.5 |
| 20260906022030 | 78 | 144 | 6.0 | 8.0 | 0.00 | 0.00 | 0.00 | 65 | 942.4 |
| 20260906021021 | 78 | 139 | 3.0 | 5.0 | 0.00 | 0.00 | 0.00 | 68 | 942.2 |
| 20260906020046 | 79 | 142 | 3.0 | 5.0 | 0.00 | 0.00 | 0.00 | 67 | 941.9 |
| 20260906015040 | 79 | 145 | 1.0 | 3.0 | 0.00 | 0.00 | 0.00 | 66 | 941.8 |
| 20260906014030 | 79 | 0.0 | 0.0 | 0.00 | 0.00 | 0.00 | 68 | 941.7 | |
| 20260906013024 | 80 | 145 | 0.0 | 1.0 | 0.00 | 0.00 | 0.00 | 67 | 941.5 |
| 20260906012017 | 81 | 146 | 0.0 | 1.0 | 0.00 | 0.00 | 0.00 | 66 | 941.6 |
| 20260906011040 | 82 | 145 | 1.0 | 3.0 | 0.00 | 0.00 | 0.00 | 65 | 941.7 |
| 20260906010034 | 82 | 146 | 3.0 | 5.0 | 0.00 | 0.00 | 0.00 | 65 | 941.7 |
| 20260906005025 | 83 | 146 | 3.0 | 4.0 | 0.00 | 0.00 | 0.00 | 63 | 941.7 |
| 20260906004018 | 84 | 151 | 4.0 | 7.0 | 0.00 | 0.00 | 0.00 | 61 | 941.8 |
| 20260906003041 | 85 | 138 | 6.0 | 11.0 | 0.00 | 0.00 | 0.00 | 59 | 941.9 |
| 20260906002054 | 87 | 145 | 9.0 | 14.0 | 0.00 | 0.00 | 0.00 | 54 | 941.9 |
| 20260906001028 | 87 | 145 | 8.0 | 11.0 | 0.00 | 0.00 | 0.00 | 49 | 941.9 |
| 20260906000019 | 88 | 157 | 6.0 | 10.0 | 0.00 | 0.00 | 0.00 | 49 | 941.7 |
| 20260905235105 | 89 | 158 | 7.0 | 14.0 | 0.00 | 0.00 | 0.00 | 45 | 941.7 |
| 20260905234036 | 89 | 148 | 11.0 | 16.0 | 0.00 | 0.00 | 0.00 | 43 | 941.9 |
| 20260905233029 | 94 | 167 | 5.0 | 10.0 | 0.00 | 0.00 | 0.00 | 43 | 942.0 |
| 20260905232020 | 94 | 175 | 5.0 | 10.0 | 0.00 | 0.00 | 0.00 | 42 | 941.9 |
| 20260905231046 | 94 | 180 | 5.0 | 8.0 | 0.00 | 0.00 | 0.00 | 42 | 941.7 |
| 20260905230037 | 94 | 172 | 3.0 | 7.0 | 0.00 | 0.00 | 0.00 | 42 | 941.8 |
| 20260905225030 | 94 | 178 | 4.0 | 8.0 | 0.00 | 0.00 | 0.00 | 42 | 941.7 |
| 20260905224024 | 94 | 172 | 4.0 | 7.0 | 0.00 | 0.00 | 0.00 | 42 | 941.4 |
| 20260905223047 | 94 | 179 | 2.0 | 5.0 | 0.00 | 0.00 | 0.00 | 43 | 941.3 |
| 20260905222100 | 94 | 189 | 3.0 | 4.0 | 0.00 | 0.00 | 0.00 | 43 | 941.3 |
| 20260905221031 | 96 | 198 | 2.0 | 7.0 | 0.00 | 0.00 | 0.00 | 41 | 941.3 |
| 20260905220044 | 96 | 176 | 4.0 | 10.0 | 0.00 | 0.00 | 0.00 | 42 | 941.6 |
| 20260905215016 | 95 | 176 | 4.0 | 7.0 | 0.00 | 0.00 | 0.00 | 43 | 941.7 |
| 20260905214041 | 95 | 183 | 4.0 | 10.0 | 0.00 | 0.00 | 0.00 | 43 | 941.9 |
| 20260905213032 | 95 | 173 | 4.0 | 7.0 | 0.00 | 0.00 | 0.00 | 43 | 942.1 |
| 20260905212026 | 95 | 161 | 3.0 | 7.0 | 0.00 | 0.00 | 0.00 | 43 | 942.0 |
| 20260905211039 | 95 | 184 | 3.0 | 4.0 | 0.00 | 0.00 | 0.00 | 43 | 942.1 |